Location: Peach Mountain Observatory
(42.3967°N, 83.9367°W)
Time: 01:09:26
(UTC-05:00)

Transit 4A - Pass Details

Date: 21 January 2020
Orbit: 872 x 973 km, 66.8° (Epoch: 27 February)

Event Time Altitude Azimuth Distance (km) Brightness Sun altitude
Rises 18:09:06 0° 316° (NW) 3,467 11.2 -6.6°
Reaches altitude 10° 18:12:05 10° 302° (WNW) 2,527 10.7 -7.1°
Maximum altitude 18:16:26 22° 254° (WSW) 1,818 10.7 -7.8°
Drops below altitude 10° 18:20:48 10° 205° (SSW) 2,538 10.9 -8.6°
Sets 18:23:49 0° 191° (S) 3,486 11.3 -9.1°
